Time,TemperatureF,DewpointF,PressureIn,WindDirection,WindDirectionDegrees,WindSpeedMPH,WindSpeedGustMPH,Humidity,HourlyPrecipIn,Conditions,Clouds,dailyrainin,SoftwareType,DateUTC
2013-04-13 00:00:00,43.5,28.0,29.45,WSW,248,6.0,9.0,54,0.00,,,0.00,meteohub,2013-04-13 05:00:00,
2013-04-13 00:05:00,43.5,28.0,29.45,WSW,248,5.0,9.0,54,0.00,,,0.00,meteohub,2013-04-13 05:05:00,
2013-04-13 00:10:00,43.5,28.0,29.45,WSW,248,4.0,8.0,54,0.00,,,0.00,meteohub,2013-04-13 05:10:00,
2013-04-13 00:15:00,43.5,28.0,29.45,SW,225,4.0,9.0,54,0.00,,,0.00,meteohub,2013-04-13 05:15:00,
2013-04-13 00:20:00,43.5,27.5,29.45,West,270,6.0,9.0,53,0.00,,,0.00,meteohub,2013-04-13 05:20:00,
2013-04-13 00:26:00,43.5,27.5,29.45,WSW,248,6.0,9.0,53,0.00,,,0.00,meteohub,2013-04-13 05:26:00,
2013-04-13 00:31:00,43.5,27.5,29.45,SW,225,7.0,8.0,53,0.00,,,0.00,meteohub,2013-04-13 05:31:00,
2013-04-13 00:36:00,43.5,27.5,29.45,WSW,248,6.0,9.0,53,0.00,,,0.00,meteohub,2013-04-13 05:36:00,
2013-04-13 00:41:00,43.3,27.3,29.45,SW,225,6.0,12.0,53,0.00,,,0.00,meteohub,2013-04-13 05:41:00,
2013-04-13 00:47:00,42.8,27.0,29.45,WSW,248,3.0,12.0,53,0.00,,,0.00,meteohub,2013-04-13 05:47:00,
2013-04-13 00:52:00,42.4,27.0,29.45,WSW,248,7.0,10.0,54,0.00,,,0.00,meteohub,2013-04-13 05:52:00,
2013-04-13 00:57:00,42.3,26.8,29.42,West,270,4.0,10.0,54,0.00,,,0.00,meteohub,2013-04-13 05:57:00,
2013-04-13 01:02:00,42.1,26.2,29.42,West,270,6.0,10.0,53,0.00,,,0.00,meteohub,2013-04-13 06:02:00,
2013-04-13 01:08:00,41.9,26.1,29.45,WNW,292,3.0,9.0,53,0.00,,,0.00,meteohub,2013-04-13 06:08:00,
2013-04-13 01:13:00,41.7,25.9,29.45,WSW,248,4.0,9.0,53,0.00,,,0.00,meteohub,2013-04-13 06:13:00,
2013-04-13 01:18:00,41.5,26.2,29.45,SW,225,4.0,9.0,54,0.00,,,0.00,meteohub,2013-04-13 06:18:00,
2013-04-13 01:24:00,41.2,25.9,29.42,WSW,248,3.0,7.0,54,0.00,,,0.00,meteohub,2013-04-13 06:24:00,
2013-04-13 01:29:00,41.0,25.7,29.42,West,270,4.0,6.0,54,0.00,,,0.00,meteohub,2013-04-13 06:29:00,
2013-04-13 01:34:00,40.6,25.7,29.42,WSW,248,3.0,5.0,55,0.00,,,0.00,meteohub,2013-04-13 06:34:00,
2013-04-13 01:40:00,40.6,26.2,29.42,WSW,248,3.0,6.0,56,0.00,,,0.00,meteohub,2013-04-13 06:40:00,
2013-04-13 01:45:00,40.5,26.4,29.42,SW,225,4.0,6.0,57,0.00,,,0.00,meteohub,2013-04-13 06:45:00,
2013-04-13 01:51:00,40.3,26.2,29.42,WSW,248,2.0,6.0,57,0.00,,,0.00,meteohub,2013-04-13 06:51:00,
2013-04-13 01:56:00,40.5,26.4,29.42,SW,225,2.0,6.0,57,0.00,,,0.00,meteohub,2013-04-13 06:56:00,
2013-04-13 02:02:00,40.5,27.0,29.42,West,270,2.0,6.0,58,0.00,,,0.00,meteohub,2013-04-13 07:02:00,
2013-04-13 02:07:00,40.3,26.8,29.45,SSW,202,2.0,4.0,58,0.00,,,0.00,meteohub,2013-04-13 07:07:00,
2013-04-13 02:12:00,40.1,26.6,29.45,SSW,202,2.0,3.0,58,0.00,,,0.00,meteohub,2013-04-13 07:12:00,
2013-04-13 02:17:00,39.9,26.8,29.45,WSW,248,3.0,4.0,59,0.00,,,0.00,meteohub,2013-04-13 07:17:00,
2013-04-13 02:22:00,39.7,26.6,29.45,WSW,248,2.0,4.0,59,0.00,,,0.00,meteohub,2013-04-13 07:22:00,
2013-04-13 02:28:00,39.2,26.6,29.45,WSW,248,3.0,4.0,60,0.00,,,0.00,meteohub,2013-04-13 07:28:00,
2013-04-13 02:33:00,39.2,26.6,29.45,SW,225,2.0,4.0,60,0.00,,,0.00,meteohub,2013-04-13 07:33:00,
2013-04-13 02:38:00,39.0,26.8,29.45,SW,225,2.0,4.0,61,0.00,,,0.00,meteohub,2013-04-13 07:38:00,
2013-04-13 02:44:00,38.8,26.6,29.45,SW,225,2.0,4.0,61,0.00,,,0.00,meteohub,2013-04-13 07:44:00,
2013-04-13 02:49:00,38.7,26.8,29.45,SW,225,2.0,3.0,62,0.00,,,0.00,meteohub,2013-04-13 07:49:00,
2013-04-13 02:54:00,38.7,26.8,29.45,SW,225,0.0,3.0,62,0.00,,,0.00,meteohub,2013-04-13 07:54:00,
2013-04-13 02:59:00,38.5,26.6,29.45,SW,225,0.0,2.0,62,0.00,,,0.00,meteohub,2013-04-13 07:59:00,
2013-04-13 03:05:00,38.3,26.8,29.45,WSW,248,2.0,2.0,63,0.00,,,0.00,meteohub,2013-04-13 08:05:00,
2013-04-13 03:10:00,38.1,26.6,29.45,WSW,248,2.0,3.0,63,0.00,,,0.00,meteohub,2013-04-13 08:10:00,
2013-04-13 03:16:00,38.1,27.1,29.45,WSW,248,1.0,3.0,64,0.00,,,0.00,meteohub,2013-04-13 08:16:00,
2013-04-13 03:21:00,37.9,27.0,29.45,SW,225,1.0,3.0,64,0.00,,,0.00,meteohub,2013-04-13 08:21:00,
2013-04-13 03:26:00,37.9,27.0,29.45,SSW,202,2.0,2.0,64,0.00,,,0.00,meteohub,2013-04-13 08:26:00,
2013-04-13 03:31:00,37.9,27.0,29.45,South,180,2.0,2.0,64,0.00,,,0.00,meteohub,2013-04-13 08:31:00,
2013-04-13 03:37:00,37.6,27.0,29.45,South,180,2.0,2.0,65,0.00,,,0.00,meteohub,2013-04-13 08:37:00,
2013-04-13 03:42:00,37.6,27.3,29.45,South,180,1.0,2.0,66,0.00,,,0.00,meteohub,2013-04-13 08:42:00,
2013-04-13 03:47:00,37.4,27.1,29.45,SSW,202,2.0,2.0,66,0.00,,,0.00,meteohub,2013-04-13 08:47:00,
2013-04-13 03:52:00,37.2,27.0,29.45,South,180,3.0,3.0,66,0.00,,,0.00,meteohub,2013-04-13 08:52:00,
2013-04-13 03:57:00,37.2,27.3,29.45,SSW,202,2.0,4.0,67,0.00,,,0.00,meteohub,2013-04-13 08:57:00,
2013-04-13 04:02:00,37.0,27.1,29.45,South,180,2.0,4.0,67,0.00,,,0.00,meteohub,2013-04-13 09:02:00,
2013-04-13 04:08:00,36.9,27.0,29.45,SSW,202,2.0,4.0,67,0.00,,,0.00,meteohub,2013-04-13 09:08:00,
2013-04-13 04:13:00,36.9,27.3,29.45,WSW,248,1.0,3.0,68,0.00,,,0.00,meteohub,2013-04-13 09:13:00,
2013-04-13 04:19:00,36.9,27.3,29.45,SSW,202,2.0,3.0,68,0.00,,,0.00,meteohub,2013-04-13 09:19:00,
2013-04-13 04:24:00,36.9,27.3,29.45,South,180,2.0,3.0,68,0.00,,,0.00,meteohub,2013-04-13 09:24:00,
2013-04-13 04:29:00,36.9,27.7,29.45,South,180,3.0,3.0,69,0.00,,,0.00,meteohub,2013-04-13 09:29:00,
2013-04-13 04:34:00,36.9,27.7,29.45,South,180,1.0,3.0,69,0.00,,,0.00,meteohub,2013-04-13 09:34:00,
2013-04-13 04:40:00,36.7,27.5,29.42,SSW,202,3.0,3.0,69,0.00,,,0.00,meteohub,2013-04-13 09:40:00,
2013-04-13 04:45:00,36.7,27.5,29.42,South,180,2.0,3.0,69,0.00,,,0.00,meteohub,2013-04-13 09:45:00,
2013-04-13 04:52:00,36.7,27.5,29.45,South,180,2.0,3.0,69,0.00,,,0.00,meteohub,2013-04-13 09:52:00,
2013-04-13 04:57:00,36.7,27.9,29.45,South,180,3.0,4.0,70,0.00,,,0.00,meteohub,2013-04-13 09:57:00,
2013-04-13 05:01:00,36.7,27.9,29.45,South,180,3.0,4.0,70,0.00,,,0.00,meteohub,2013-04-13 10:01:00,
2013-04-13 05:07:00,36.5,27.7,29.45,South,180,2.0,4.0,70,0.00,,,0.00,meteohub,2013-04-13 10:07:00,
2013-04-13 05:17:00,36.1,27.3,29.45,SSW,202,2.0,3.0,70,0.00,,,0.00,meteohub,2013-04-13 10:17:00,
2013-04-13 05:22:00,36.1,27.3,29.45,South,180,2.0,3.0,70,0.00,,,0.00,meteohub,2013-04-13 10:22:00,
2013-04-13 05:27:00,36.1,27.7,29.45,SSW,202,1.0,3.0,71,0.00,,,0.00,meteohub,2013-04-13 10:27:00,
2013-04-13 05:32:00,36.1,27.3,29.45,South,180,3.0,3.0,70,0.00,,,0.00,meteohub,2013-04-13 10:32:00,
2013-04-13 05:37:00,36.1,27.7,29.45,South,180,1.0,3.0,71,0.00,,,0.00,meteohub,2013-04-13 10:37:00,
2013-04-13 05:42:00,36.1,27.7,29.45,South,180,3.0,3.0,71,0.00,,,0.00,meteohub,2013-04-13 10:42:00,
2013-04-13 05:47:00,36.0,27.5,29.45,South,180,2.0,3.0,71,0.00,,,0.00,meteohub,2013-04-13 10:47:00,
2013-04-13 05:52:00,36.1,27.7,29.45,WSW,248,2.0,3.0,71,0.00,,,0.00,meteohub,2013-04-13 10:52:00,
2013-04-13 05:58:00,36.1,27.7,29.45,South,180,1.0,3.0,71,0.00,,,0.00,meteohub,2013-04-13 10:58:00,
2013-04-13 06:03:00,36.0,27.5,29.45,South,180,2.0,3.0,71,0.00,,,0.00,meteohub,2013-04-13 11:03:00,
2013-04-13 06:08:00,36.0,27.5,29.42,South,180,1.0,3.0,71,0.00,,,0.00,meteohub,2013-04-13 11:08:00,
2013-04-13 06:13:00,36.0,27.9,29.42,SW,225,2.0,3.0,72,0.00,,,0.00,meteohub,2013-04-13 11:13:00,
2013-04-13 06:18:00,36.0,27.9,29.42,West,270,4.0,4.0,72,0.00,,,0.00,meteohub,2013-04-13 11:18:00,
2013-04-13 06:24:00,36.0,27.9,29.45,SSW,202,4.0,5.0,72,0.00,,,0.00,meteohub,2013-04-13 11:24:00,
2013-04-13 06:29:00,36.3,28.2,29.45,SW,225,4.0,6.0,72,0.00,,,0.00,meteohub,2013-04-13 11:29:00,
2013-04-13 06:34:00,36.3,28.2,29.45,WSW,248,3.0,6.0,72,0.00,,,0.00,meteohub,2013-04-13 11:34:00,
2013-04-13 06:40:00,36.5,28.4,29.45,SW,225,3.0,6.0,72,0.00,,,0.00,meteohub,2013-04-13 11:40:00,
2013-04-13 06:45:00,36.9,28.8,29.45,SW,225,4.0,6.0,72,0.00,,,0.00,meteohub,2013-04-13 11:45:00,
2013-04-13 06:50:00,37.2,29.1,29.42,SSW,202,4.0,5.0,72,0.00,,,0.00,meteohub,2013-04-13 11:50:00,
2013-04-13 06:55:00,37.6,29.1,29.42,SW,225,3.0,5.0,71,0.00,,,0.00,meteohub,2013-04-13 11:55:00,
2013-04-13 07:01:00,37.8,29.3,29.42,SSE,158,1.0,5.0,71,0.00,,,0.00,meteohub,2013-04-13 12:01:00,
2013-04-13 07:07:00,37.9,29.5,29.45,SSW,202,3.0,6.0,71,0.00,,,0.00,meteohub,2013-04-13 12:07:00,
2013-04-13 07:12:00,38.3,29.7,29.45,WSW,248,3.0,6.0,71,0.00,,,0.00,meteohub,2013-04-13 12:12:00,
2013-04-13 07:18:00,38.8,29.8,29.45,SW,225,4.0,6.0,70,0.00,,,0.00,meteohub,2013-04-13 12:18:00,
2013-04-13 07:23:00,39.4,30.0,29.45,SW,225,5.0,6.0,69,0.00,,,0.00,meteohub,2013-04-13 12:23:00,
2013-04-13 07:28:00,39.7,30.4,29.45,SSW,202,3.0,6.0,69,0.00,,,0.00,meteohub,2013-04-13 12:28:00,
2013-04-13 07:33:00,41.2,31.8,29.45,SSW,202,5.0,9.0,69,0.00,,,0.00,meteohub,2013-04-13 12:33:00,
2013-04-13 07:39:00,42.1,31.3,29.45,WSW,248,13.0,13.0,65,0.00,,,0.00,meteohub,2013-04-13 12:39:00,
2013-04-13 07:44:00,42.6,31.3,29.45,SW,225,6.0,9.0,64,0.00,,,0.00,meteohub,2013-04-13 12:44:00,
2013-04-13 07:50:00,43.3,30.7,29.45,SW,225,6.0,13.0,61,0.00,,,0.00,meteohub,2013-04-13 12:50:00,
2013-04-13 07:55:00,43.7,29.8,29.45,SW,225,5.0,11.0,58,0.00,,,0.00,meteohub,2013-04-13 12:55:00,
2013-04-13 08:00:00,43.9,29.3,29.45,WSW,248,9.0,11.0,56,0.00,,,0.00,meteohub,2013-04-13 13:00:00,
2013-04-13 08:05:00,43.9,29.7,29.45,WSW,248,6.0,13.0,57,0.00,,,0.00,meteohub,2013-04-13 13:05:00,
2013-04-13 08:11:00,44.1,29.8,29.45,West,270,15.0,15.0,57,0.00,,,0.00,meteohub,2013-04-13 13:11:00,
2013-04-13 08:16:00,44.6,29.8,29.45,West,270,4.0,15.0,56,0.00,,,0.00,meteohub,2013-04-13 13:16:00,
2013-04-13 08:21:00,44.8,29.1,29.48,West,270,4.0,15.0,54,0.00,,,0.00,meteohub,2013-04-13 13:21:00,
2013-04-13 08:27:00,44.8,29.1,29.48,WSW,248,9.0,15.0,54,0.00,,,0.00,meteohub,2013-04-13 13:27:00,
2013-04-13 08:32:00,45.1,29.1,29.48,West,270,7.0,13.0,53,0.00,,,0.00,meteohub,2013-04-13 13:32:00,
2013-04-13 08:37:00,45.5,29.5,29.48,West,270,6.0,13.0,53,0.00,,,0.00,meteohub,2013-04-13 13:37:00,
2013-04-13 08:42:00,45.9,29.3,29.48,West,270,15.0,15.0,52,0.00,,,0.00,meteohub,2013-04-13 13:42:00,
2013-04-13 08:47:00,45.9,29.7,29.48,West,270,8.0,15.0,53,0.00,,,0.00,meteohub,2013-04-13 13:47:00,
2013-04-13 08:52:00,46.0,29.5,29.45,WNW,292,5.0,15.0,52,0.00,,,0.00,meteohub,2013-04-13 13:52:00,
2013-04-13 08:57:00,46.8,29.7,29.45,West,270,7.0,15.0,51,0.00,,,0.00,meteohub,2013-04-13 13:57:00,
2013-04-13 09:03:00,46.8,29.1,29.45,WSW,248,6.0,15.0,50,0.00,,,0.00,meteohub,2013-04-13 14:03:00,
2013-04-13 09:09:00,47.1,29.5,29.48,SW,225,14.0,17.0,50,0.00,,,0.00,meteohub,2013-04-13 14:09:00,
2013-04-13 09:14:00,47.3,29.7,29.48,West,270,11.0,17.0,50,0.00,,,0.00,meteohub,2013-04-13 14:14:00,
2013-04-13 09:20:00,48.0,29.3,29.48,WSW,248,8.0,15.0,48,0.00,,,0.00,meteohub,2013-04-13 14:20:00,
2013-04-13 09:25:00,48.4,29.1,29.48,SW,225,8.0,15.0,47,0.00,,,0.00,meteohub,2013-04-13 14:25:00,
2013-04-13 09:30:00,49.1,29.3,29.48,SW,225,13.0,15.0,46,0.00,,,0.00,meteohub,2013-04-13 14:30:00,
2013-04-13 09:35:00,49.8,28.2,29.48,West,270,13.0,13.0,43,0.00,,,0.00,meteohub,2013-04-13 14:35:00,
2013-04-13 09:42:00,50.5,27.7,29.48,WNW,292,15.0,15.0,41,0.00,,,0.00,meteohub,2013-04-13 14:42:00,
2013-04-13 09:47:00,51.4,28.0,29.48,West,270,13.0,16.0,40,0.00,,,0.00,meteohub,2013-04-13 14:47:00,
2013-04-13 09:52:00,52.2,27.3,29.48,WNW,292,13.0,16.0,38,0.00,,,0.00,meteohub,2013-04-13 14:52:00,
2013-04-13 09:57:00,52.3,27.5,29.48,West,270,10.0,16.0,38,0.00,,,0.00,meteohub,2013-04-13 14:57:00,
2013-04-13 10:02:00,52.7,27.1,29.48,West,270,11.0,16.0,37,0.00,,,0.00,meteohub,2013-04-13 15:02:00,
2013-04-13 10:07:00,52.7,27.9,29.48,WSW,248,15.0,17.0,38,0.00,,,0.00,meteohub,2013-04-13 15:07:00,
2013-04-13 10:12:00,52.9,28.0,29.48,West,270,8.0,17.0,38,0.00,,,0.00,meteohub,2013-04-13 15:12:00,
2013-04-13 10:18:00,52.5,27.0,29.48,WNW,292,11.0,17.0,37,0.00,,,0.00,meteohub,2013-04-13 15:18:00,
2013-04-13 10:23:00,52.3,27.0,29.48,WSW,248,9.0,19.0,37,0.00,,,0.00,meteohub,2013-04-13 15:23:00,
2013-04-13 10:28:00,52.7,27.9,29.48,West,270,11.0,19.0,38,0.00,,,0.00,meteohub,2013-04-13 15:28:00,
2013-04-13 10:33:00,53.1,27.5,29.48,West,270,13.0,15.0,37,0.00,,,0.00,meteohub,2013-04-13 15:33:00,
2013-04-13 10:39:00,52.9,27.3,29.48,WNW,292,9.0,15.0,37,0.00,,,0.00,meteohub,2013-04-13 15:39:00,
2013-04-13 10:44:00,52.9,28.0,29.48,WSW,248,10.0,19.0,38,0.00,,,0.00,meteohub,2013-04-13 15:44:00,
2013-04-13 10:49:00,52.9,28.0,29.48,West,270,9.0,19.0,38,0.00,,,0.00,meteohub,2013-04-13 15:49:00,
2013-04-13 10:54:00,53.8,28.8,29.48,WNW,292,13.0,19.0,38,0.00,,,0.00,meteohub,2013-04-13 15:54:00,
2013-04-13 11:00:00,54.1,29.1,29.48,WNW,292,5.0,19.0,38,0.00,,,0.00,meteohub,2013-04-13 16:00:00,
2013-04-13 11:05:00,54.5,28.8,29.48,WNW,292,15.0,19.0,37,0.00,,,0.00,meteohub,2013-04-13 16:05:00,
2013-04-13 11:10:00,54.1,27.9,29.48,SW,225,14.0,18.0,36,0.00,,,0.00,meteohub,2013-04-13 16:10:00,
2013-04-13 11:15:00,53.8,28.2,29.48,WNW,292,6.0,20.0,37,0.00,,,0.00,meteohub,2013-04-13 16:15:00,
2013-04-13 11:21:00,54.5,28.8,29.48,West,270,6.0,20.0,37,0.00,,,0.00,meteohub,2013-04-13 16:21:00,
2013-04-13 11:26:00,54.9,29.1,29.48,West,270,8.0,20.0,37,0.00,,,0.00,meteohub,2013-04-13 16:26:00,
2013-04-13 11:32:00,54.5,28.8,29.48,WNW,292,8.0,13.0,37,0.00,,,0.00,meteohub,2013-04-13 16:32:00,
2013-04-13 11:37:00,54.3,28.6,29.48,WSW,248,14.0,14.0,37,0.00,,,0.00,meteohub,2013-04-13 16:37:00,
2013-04-13 11:42:00,54.5,29.5,29.48,West,270,9.0,15.0,38,0.00,,,0.00,meteohub,2013-04-13 16:42:00,
2013-04-13 11:47:00,55.4,29.7,29.48,WSW,248,4.0,15.0,37,0.00,,,0.00,meteohub,2013-04-13 16:47:00,
2013-04-13 11:53:00,55.4,28.9,29.48,WSW,248,10.0,15.0,36,0.00,,,0.00,meteohub,2013-04-13 16:53:00,
2013-04-13 11:58:00,55.9,30.0,29.48,West,270,10.0,12.0,37,0.00,,,0.00,meteohub,2013-04-13 16:58:00,
2013-04-13 12:03:00,56.3,29.7,29.48,WNW,292,9.0,13.0,36,0.00,,,0.00,meteohub,2013-04-13 17:03:00,
2013-04-13 12:08:00,56.3,29.7,29.48,WSW,248,8.0,13.0,36,0.00,,,0.00,meteohub,2013-04-13 17:08:00,
2013-04-13 12:13:00,56.3,29.1,29.48,WSW,248,6.0,13.0,35,0.00,,,0.00,meteohub,2013-04-13 17:13:00,
2013-04-13 12:19:00,56.1,29.7,29.48,NW,315,8.0,15.0,36,0.00,,,0.00,meteohub,2013-04-13 17:19:00,
2013-04-13 12:24:00,56.7,30.0,29.48,WSW,248,9.0,15.0,36,0.00,,,0.00,meteohub,2013-04-13 17:24:00,
2013-04-13 12:30:00,57.0,30.4,29.48,WNW,292,5.0,15.0,36,0.00,,,0.00,meteohub,2013-04-13 17:30:00,
2013-04-13 12:35:00,57.0,29.7,29.48,WNW,292,9.0,17.0,35,0.00,,,0.00,meteohub,2013-04-13 17:35:00,
2013-04-13 12:41:00,56.7,29.3,29.48,NNW,338,6.0,17.0,35,0.00,,,0.00,meteohub,2013-04-13 17:41:00,
2013-04-13 12:46:00,57.7,30.4,29.48,WNW,292,11.0,17.0,35,0.00,,,0.00,meteohub,2013-04-13 17:46:00,
2013-04-13 12:51:00,58.5,30.9,29.48,WNW,292,6.0,16.0,35,0.00,,,0.00,meteohub,2013-04-13 17:51:00,
2013-04-13 12:57:00,59.4,31.1,29.48,West,270,10.0,16.0,34,0.00,,,0.00,meteohub,2013-04-13 17:57:00,
2013-04-13 13:02:00,59.4,31.1,29.48,WNW,292,6.0,14.0,34,0.00,,,0.00,meteohub,2013-04-13 18:02:00,
2013-04-13 13:07:00,60.1,31.6,29.48,West,270,10.0,14.0,34,0.00,,,0.00,meteohub,2013-04-13 18:07:00,
2013-04-13 13:12:00,60.3,31.8,29.48,WSW,248,11.0,14.0,34,0.00,,,0.00,meteohub,2013-04-13 18:12:00,
2013-04-13 13:17:00,60.3,31.1,29.48,West,270,6.0,13.0,33,0.00,,,0.00,meteohub,2013-04-13 18:17:00,
2013-04-13 13:23:00,60.6,31.5,29.48,West,270,6.0,13.0,33,0.00,,,0.00,meteohub,2013-04-13 18:23:00,
2013-04-13 13:27:00,59.9,28.4,29.48,West,270,12.0,14.0,30,0.00,,,0.00,meteohub,2013-04-13 18:27:00,
2013-04-13 13:30:00,59.9,28.4,29.48,West,270,13.0,17.0,30,0.00,,,0.00,meteohub,2013-04-13 18:30:00,
2013-04-13 13:35:00,60.1,29.5,29.48,West,270,6.0,17.0,31,0.00,,,0.00,meteohub,2013-04-13 18:35:00,
2013-04-13 13:40:00,59.7,28.2,29.48,West,270,9.0,17.0,30,0.00,,,0.00,meteohub,2013-04-13 18:40:00,
2013-04-13 13:45:00,59.5,28.0,29.48,WNW,292,8.0,18.0,30,0.00,,,0.00,meteohub,2013-04-13 18:45:00,
2013-04-13 13:51:00,60.1,28.6,29.45,WNW,292,10.0,18.0,30,0.00,,,0.00,meteohub,2013-04-13 18:51:00,
2013-04-13 13:56:00,60.6,29.1,29.45,WNW,292,9.0,13.0,30,0.00,,,0.00,meteohub,2013-04-13 18:56:00,
2013-04-13 14:02:00,61.2,30.4,29.45,WSW,248,11.0,17.0,31,0.00,,,0.00,meteohub,2013-04-13 19:02:00,
2013-04-13 14:07:00,60.4,28.0,29.45,West,270,10.0,17.0,29,0.00,,,0.00,meteohub,2013-04-13 19:07:00,
2013-04-13 14:12:00,60.6,29.1,29.45,WNW,292,11.0,17.0,30,0.00,,,0.00,meteohub,2013-04-13 19:12:00,
2013-04-13 14:17:00,60.6,29.1,29.45,WNW,292,9.0,17.0,30,0.00,,,0.00,meteohub,2013-04-13 19:17:00,
2013-04-13 14:22:00,61.2,29.5,29.45,WNW,292,5.0,17.0,30,0.00,,,0.00,meteohub,2013-04-13 19:22:00,
2013-04-13 14:28:00,60.8,29.3,29.45,WNW,292,6.0,17.0,30,0.00,,,0.00,meteohub,2013-04-13 19:28:00,
2013-04-13 14:33:00,62.1,31.1,29.45,WNW,292,6.0,15.0,31,0.00,,,0.00,meteohub,2013-04-13 19:33:00,
2013-04-13 14:39:00,61.5,28.9,29.45,NW,315,6.0,15.0,29,0.00,,,0.00,meteohub,2013-04-13 19:39:00,
2013-04-13 14:44:00,61.9,29.3,29.45,WNW,292,8.0,15.0,29,0.00,,,0.00,meteohub,2013-04-13 19:44:00,
2013-04-13 14:49:00,61.9,29.3,29.45,WNW,292,7.0,12.0,29,0.00,,,0.00,meteohub,2013-04-13 19:49:00,
2013-04-13 14:54:00,62.2,29.7,29.45,NW,315,8.0,15.0,29,0.00,,,0.00,meteohub,2013-04-13 19:54:00,
2013-04-13 14:59:00,63.5,31.6,29.45,WNW,292,8.0,15.0,30,0.00,,,0.00,meteohub,2013-04-13 19:59:00,
2013-04-13 15:05:00,62.6,29.1,29.45,WNW,292,6.0,15.0,28,0.00,,,0.00,meteohub,2013-04-13 20:05:00,
2013-04-13 15:09:00,62.6,29.1,29.42,West,270,3.0,13.0,28,0.00,,,0.00,meteohub,2013-04-13 20:09:00,
2013-04-13 15:15:00,63.3,29.7,29.42,WSW,248,4.0,13.0,28,0.00,,,0.00,meteohub,2013-04-13 20:15:00,
2013-04-13 15:20:00,64.9,32.7,29.42,SW,225,3.0,13.0,30,0.00,,,0.00,meteohub,2013-04-13 20:20:00,
2013-04-13 15:25:00,64.9,32.0,29.45,WNW,292,2.0,9.0,29,0.00,,,0.00,meteohub,2013-04-13 20:25:00,
2013-04-13 15:30:00,63.5,29.8,29.45,WNW,292,10.0,10.0,28,0.00,,,0.00,meteohub,2013-04-13 20:30:00,
2013-04-13 15:36:00,63.7,30.9,29.45,South,180,6.0,12.0,29,0.00,,,0.00,meteohub,2013-04-13 20:36:00,
2013-04-13 15:41:00,64.2,32.2,29.45,NW,315,6.0,12.0,30,0.00,,,0.00,meteohub,2013-04-13 20:41:00,
2013-04-13 15:46:00,63.9,31.1,29.45,WNW,292,3.0,12.0,29,0.00,,,0.00,meteohub,2013-04-13 20:46:00,
2013-04-13 15:51:00,63.5,30.7,29.45,West,270,5.0,10.0,29,0.00,,,0.00,meteohub,2013-04-13 20:51:00,
2013-04-13 15:57:00,62.2,29.7,29.45,WNW,292,8.0,10.0,29,0.00,,,0.00,meteohub,2013-04-13 20:57:00,
2013-04-13 16:02:00,62.2,29.7,29.45,West,270,3.0,10.0,29,0.00,,,0.00,meteohub,2013-04-13 21:02:00,
2013-04-13 16:07:00,62.6,30.7,29.45,SW,225,3.0,10.0,30,0.00,,,0.00,meteohub,2013-04-13 21:07:00,
2013-04-13 16:12:00,63.0,31.8,29.45,WNW,292,5.0,10.0,31,0.00,,,0.00,meteohub,2013-04-13 21:12:00,
2013-04-13 16:17:00,62.4,30.6,29.45,WSW,248,9.0,9.0,30,0.00,,,0.00,meteohub,2013-04-13 21:17:00,
2013-04-13 16:22:00,62.6,30.7,29.42,WNW,292,4.0,9.0,30,0.00,,,0.00,meteohub,2013-04-13 21:22:00,
2013-04-13 16:27:00,61.9,30.9,29.42,SW,225,8.0,9.0,31,0.00,,,0.00,meteohub,2013-04-13 21:27:00,
2013-04-13 16:32:00,61.3,30.6,29.42,NNW,338,0.0,9.0,31,0.00,,,0.00,meteohub,2013-04-13 21:32:00,
2013-04-13 16:37:00,61.5,30.6,29.42,WSW,248,6.0,9.0,31,0.00,,,0.00,meteohub,2013-04-13 21:37:00,
2013-04-13 16:42:00,61.0,30.2,29.42,NW,315,9.0,9.0,31,0.00,,,0.00,meteohub,2013-04-13 21:42:00,
2013-04-13 16:48:00,61.0,30.2,29.42,WNW,292,2.0,8.0,31,0.00,,,0.00,meteohub,2013-04-13 21:48:00,
2013-04-13 16:53:00,61.0,30.2,29.42,WSW,248,4.0,9.0,31,0.00,,,0.00,meteohub,2013-04-13 21:53:00,
2013-04-13 16:58:00,60.6,29.8,29.42,WNW,292,4.0,13.0,31,0.00,,,0.00,meteohub,2013-04-13 21:58:00,
2013-04-13 17:03:00,60.6,30.6,29.42,SW,225,2.0,13.0,32,0.00,,,0.00,meteohub,2013-04-13 22:03:00,
2013-04-13 17:09:00,60.6,31.5,29.42,West,270,7.0,13.0,33,0.00,,,0.00,meteohub,2013-04-13 22:09:00,
2013-04-13 17:14:00,60.4,32.0,29.42,West,270,4.0,9.0,34,0.00,,,0.00,meteohub,2013-04-13 22:14:00,
2013-04-13 17:19:00,60.1,31.6,29.42,WSW,248,6.0,9.0,34,0.00,,,0.00,meteohub,2013-04-13 22:19:00,
2013-04-13 17:24:00,59.9,31.5,29.42,SSW,202,3.0,9.0,34,0.00,,,0.00,meteohub,2013-04-13 22:24:00,
2013-04-13 17:29:00,59.7,31.3,29.42,South,180,3.0,8.0,34,0.00,,,0.00,meteohub,2013-04-13 22:29:00,
2013-04-13 17:35:00,59.7,31.3,29.42,West,270,4.0,7.0,34,0.00,,,0.00,meteohub,2013-04-13 22:35:00,
2013-04-13 17:40:00,59.4,31.1,29.42,West,270,4.0,6.0,34,0.00,,,0.00,meteohub,2013-04-13 22:40:00,
2013-04-13 17:45:00,59.4,31.8,29.42,SW,225,2.0,7.0,35,0.00,,,0.00,meteohub,2013-04-13 22:45:00,
2013-04-13 17:50:00,58.8,31.3,29.39,ENE,68,2.0,4.0,35,0.00,,,0.00,meteohub,2013-04-13 22:50:00,
2013-04-13 17:55:00,58.8,31.3,29.39,NE,45,3.0,4.0,35,0.00,,,0.00,meteohub,2013-04-13 22:55:00,
2013-04-13 18:00:00,58.6,31.1,29.39,North,0,0.0,4.0,35,0.00,,,0.00,meteohub,2013-04-13 23:00:00,
2013-04-13 18:06:00,58.5,30.9,29.42,SW,225,3.0,4.0,35,0.00,,,0.00,meteohub,2013-04-13 23:06:00,
2013-04-13 18:11:00,58.3,30.7,29.42,SSW,202,4.0,4.0,35,0.00,,,0.00,meteohub,2013-04-13 23:11:00,
2013-04-13 18:16:00,58.3,30.7,29.42,SSW,202,3.0,4.0,35,0.00,,,0.00,meteohub,2013-04-13 23:16:00,
2013-04-13 18:21:00,58.5,31.6,29.42,WSW,248,5.0,5.0,36,0.00,,,0.00,meteohub,2013-04-13 23:21:00,
2013-04-13 18:26:00,58.5,31.6,29.39,SSW,202,5.0,6.0,36,0.00,,,0.00,meteohub,2013-04-13 23:26:00,
2013-04-13 18:31:00,58.1,31.3,29.39,South,180,3.0,6.0,36,0.00,,,0.00,meteohub,2013-04-13 23:31:00,
2013-04-13 18:36:00,58.1,31.3,29.39,SW,225,2.0,6.0,36,0.00,,,0.00,meteohub,2013-04-13 23:36:00,
2013-04-13 18:42:00,57.7,30.9,29.39,SSE,158,0.0,5.0,36,0.00,,,0.00,meteohub,2013-04-13 23:42:00,
2013-04-13 18:47:00,57.4,30.7,29.39,SE,135,3.0,3.0,36,0.00,,,0.00,meteohub,2013-04-13 23:47:00,
2013-04-13 18:52:00,57.2,30.6,29.39,ESE,112,2.0,4.0,36,0.00,,,0.00,meteohub,2013-04-13 23:52:00,
2013-04-13 18:57:00,57.0,31.1,29.39,South,180,0.0,4.0,37,0.00,,,0.00,meteohub,2013-04-13 23:57:00,
2013-04-13 19:02:00,56.8,30.9,29.39,SSE,158,1.0,4.0,37,0.00,,,0.00,meteohub,2013-04-14 00:02:00,
2013-04-13 19:07:00,56.8,30.9,29.36,SSE,158,0.0,2.0,37,0.00,,,0.00,meteohub,2013-04-14 00:07:00,
2013-04-13 19:12:00,56.7,30.0,29.36,SSE,158,0.0,2.0,36,0.00,,,0.00,meteohub,2013-04-14 00:12:00,
2013-04-13 19:18:00,56.3,30.4,29.36,SSE,158,1.0,2.0,37,0.00,,,0.00,meteohub,2013-04-14 00:18:00,
2013-04-13 19:23:00,55.9,30.0,29.39,SSE,158,0.0,1.0,37,0.00,,,0.00,meteohub,2013-04-14 00:23:00,
2013-04-13 19:28:00,55.6,30.4,29.39,SSE,158,0.0,1.0,38,0.00,,,0.00,meteohub,2013-04-14 00:28:00,
2013-04-13 19:33:00,55.0,30.6,29.39,SSE,158,0.0,1.0,39,0.00,,,0.00,meteohub,2013-04-14 00:33:00,
2013-04-13 19:38:00,54.7,30.2,29.39,SSE,158,0.0,1.0,39,0.00,,,0.00,meteohub,2013-04-14 00:38:00,
2013-04-13 19:43:00,54.1,29.8,29.39,SSE,158,0.0,0.0,39,0.00,,,0.00,meteohub,2013-04-14 00:43:00,
2013-04-13 19:48:00,54.0,29.7,29.39,ESE,112,0.0,0.0,39,0.00,,,0.00,meteohub,2013-04-14 00:48:00,
2013-04-13 19:53:00,54.1,29.8,29.39,East,90,0.0,0.0,39,0.00,,,0.00,meteohub,2013-04-14 00:53:00,
2013-04-13 19:58:00,53.8,30.0,29.39,East,90,0.0,2.0,40,0.00,,,0.00,meteohub,2013-04-14 00:58:00,
2013-04-13 20:04:00,53.6,30.6,29.39,East,90,1.0,2.0,41,0.00,,,0.00,meteohub,2013-04-14 01:04:00,
2013-04-13 20:09:00,53.1,30.0,29.36,East,90,0.0,2.0,41,0.00,,,0.00,meteohub,2013-04-14 01:09:00,
2013-04-13 20:14:00,52.9,29.8,29.36,East,90,1.0,1.0,41,0.00,,,0.00,meteohub,2013-04-14 01:14:00,
2013-04-13 20:19:00,52.9,30.4,29.36,ENE,68,1.0,1.0,42,0.00,,,0.00,meteohub,2013-04-14 01:19:00,
2013-04-13 20:25:00,52.7,30.4,29.36,ENE,68,1.0,2.0,42,0.00,,,0.00,meteohub,2013-04-14 01:25:00,
2013-04-13 20:30:00,52.7,31.5,29.36,NE,45,2.0,2.0,44,0.00,,,0.00,meteohub,2013-04-14 01:30:00,
2013-04-13 20:35:00,52.7,32.5,29.39,NE,45,3.0,3.0,46,0.00,,,0.00,meteohub,2013-04-14 01:35:00,
2013-04-13 20:40:00,52.5,32.4,29.39,ENE,68,2.0,3.0,46,0.00,,,0.00,meteohub,2013-04-14 01:40:00,
2013-04-13 20:45:00,52.3,32.7,29.39,ENE,68,1.0,3.0,47,0.00,,,0.00,meteohub,2013-04-14 01:45:00,
2013-04-13 20:51:00,52.0,32.4,29.39,ENE,68,2.0,3.0,47,0.00,,,0.00,meteohub,2013-04-14 01:51:00,
2013-04-13 20:56:00,52.0,32.4,29.39,East,90,0.0,3.0,47,0.00,,,0.00,meteohub,2013-04-14 01:56:00,
2013-04-13 21:01:00,51.6,32.5,29.39,East,90,0.0,3.0,48,0.00,,,0.00,meteohub,2013-04-14 02:01:00,
2013-04-13 21:07:00,51.3,32.4,29.39,East,90,2.0,3.0,48,0.00,,,0.00,meteohub,2013-04-14 02:07:00,
2013-04-13 21:12:00,50.9,32.0,29.39,East,90,0.0,2.0,48,0.00,,,0.00,meteohub,2013-04-14 02:12:00,
2013-04-13 21:17:00,50.7,32.4,29.39,ENE,68,2.0,2.0,49,0.00,,,0.00,meteohub,2013-04-14 02:17:00,
2013-04-13 21:22:00,50.5,31.6,29.39,ENE,68,0.0,2.0,48,0.00,,,0.00,meteohub,2013-04-14 02:22:00,
2013-04-13 21:27:00,50.5,31.6,29.39,East,90,1.0,4.0,48,0.00,,,0.00,meteohub,2013-04-14 02:27:00,
2013-04-13 21:32:00,50.4,31.5,29.39,East,90,1.0,4.0,48,0.00,,,0.00,meteohub,2013-04-14 02:32:00,
2013-04-13 21:37:00,50.4,31.5,29.39,East,90,1.0,3.0,48,0.00,,,0.00,meteohub,2013-04-14 02:37:00,
2013-04-13 21:42:00,50.5,31.6,29.39,NE,45,1.0,3.0,48,0.00,,,0.00,meteohub,2013-04-14 02:42:00,
2013-04-13 21:47:00,50.5,31.6,29.39,ENE,68,1.0,3.0,48,0.00,,,0.00,meteohub,2013-04-14 02:47:00,
2013-04-13 21:52:00,50.2,31.8,29.39,East,90,2.0,3.0,49,0.00,,,0.00,meteohub,2013-04-14 02:52:00,
2013-04-13 21:58:00,50.0,31.6,29.39,SE,135,2.0,3.0,49,0.00,,,0.00,meteohub,2013-04-14 02:58:00,
2013-04-13 22:03:00,49.8,31.5,29.39,East,90,1.0,3.0,49,0.00,,,0.00,meteohub,2013-04-14 03:03:00,
2013-04-13 22:08:00,49.8,32.0,29.39,East,90,2.0,3.0,50,0.00,,,0.00,meteohub,2013-04-14 03:08:00,
2013-04-13 22:13:00,49.6,31.3,29.39,ESE,112,2.0,3.0,49,0.00,,,0.00,meteohub,2013-04-14 03:13:00,
2013-04-13 22:19:00,49.8,31.5,29.39,ESE,112,2.0,3.0,49,0.00,,,0.00,meteohub,2013-04-14 03:19:00,
2013-04-13 22:24:00,50.0,31.6,29.39,ESE,112,3.0,4.0,49,0.00,,,0.00,meteohub,2013-04-14 03:24:00,
2013-04-13 22:29:00,50.0,31.6,29.39,East,90,0.0,4.0,49,0.00,,,0.00,meteohub,2013-04-14 03:29:00,
2013-04-13 22:34:00,49.8,31.5,29.39,ESE,112,2.0,4.0,49,0.00,,,0.00,meteohub,2013-04-14 03:34:00,
2013-04-13 22:39:00,49.6,31.3,29.39,ESE,112,2.0,3.0,49,0.00,,,0.00,meteohub,2013-04-14 03:39:00,
2013-04-13 22:44:00,49.6,31.3,29.39,East,90,2.0,3.0,49,0.00,,,0.00,meteohub,2013-04-14 03:44:00,
2013-04-13 22:49:00,49.6,31.3,29.39,East,90,2.0,3.0,49,0.00,,,0.00,meteohub,2013-04-14 03:49:00,
2013-04-13 22:55:00,49.6,31.3,29.39,ESE,112,2.0,4.0,49,0.00,,,0.00,meteohub,2013-04-14 03:55:00,
2013-04-13 23:00:00,49.6,31.3,29.39,ESE,112,0.0,4.0,49,0.00,,,0.00,meteohub,2013-04-14 04:00:00,
2013-04-13 23:01:00,49.6,31.3,29.39,ESE,112,0.0,4.0,49,0.00,,,0.00,meteohub,2013-04-14 04:01:00,
2013-04-13 23:03:00,49.5,31.1,29.39,ESE,112,0.0,4.0,49,0.00,,,0.00,meteohub,2013-04-14 04:03:00,
2013-04-13 23:09:00,49.3,30.9,29.39,ESE,112,2.0,4.0,49,0.00,,,0.00,meteohub,2013-04-14 04:09:00,
2013-04-13 23:14:00,49.6,31.8,29.39,East,90,2.0,3.0,50,0.00,,,0.00,meteohub,2013-04-14 04:14:00,
2013-04-13 23:20:00,49.6,31.8,29.39,ESE,112,1.0,4.0,50,0.00,,,0.00,meteohub,2013-04-14 04:20:00,
2013-04-13 23:25:00,49.6,31.8,29.39,ESE,112,3.0,4.0,50,0.00,,,0.00,meteohub,2013-04-14 04:25:00,
2013-04-13 23:30:00,49.6,31.8,29.39,SSE,158,3.0,4.0,50,0.00,,,0.00,meteohub,2013-04-14 04:30:00,
2013-04-13 23:36:00,49.6,31.8,29.39,East,90,3.0,4.0,50,0.00,,,0.00,meteohub,2013-04-14 04:36:00,
2013-04-13 23:41:00,49.6,31.8,29.39,ESE,112,1.0,4.0,50,0.00,,,0.00,meteohub,2013-04-14 04:41:00,
2013-04-13 23:46:00,49.6,31.8,29.39,East,90,2.0,4.0,50,0.00,,,0.00,meteohub,2013-04-14 04:46:00,
2013-04-13 23:52:00,49.6,32.4,29.39,ESE,112,3.0,4.0,51,0.00,,,0.00,meteohub,2013-04-14 04:52:00,
2013-04-13 23:57:00,49.8,32.5,29.39,ESE,112,2.0,4.0,51,0.00,,,0.00,meteohub,2013-04-14 04:57:00,